Voltar ao catálogo

STARLINK-35928

AtivoComunicaçõesVLEO
NORAD 66528·PAYLOAD·🇺🇸 United States

Lançado Nov 19, 2025 de Cape Canaveral Space Force Station

Loading…

Próximas Passagens (próximas 24 horas)

TLE

AtualizadoSource: CelesTrak SupGP

Época: Sep 14, 2026, 21:46 UTC

1 66528C 25265N   26257.90743056  .00011502  00000+0  41671-3 0  2570
2 66528  43.0000 289.1704 0001510 264.1906  97.6450 15.27562662    16

Acompanhe STARLINK-35928 em tempo real com AllMySat

Download on the App Store